Location: Unspecified
(0.0000°N, 0.0000°E)
Time: 23:46:49
(UTC+00:00)

DMSP F15 (USA 147) - Visible Passes

Search period start: 01 October 2020 00:00
Search period end: 11 October 2020 00:00
Orbit: 830 x 844 km, 99.0° (Epoch: 01 October)

Date Brightness Start Highest point End Pass type
(mag) Time Alt. Az. Time Alt. Az. Time Alt. Az.
01 Oct 7.8 03:14:11 10° NE 03:14:23 11° NE 03:14:23 11° NE visible
02 Oct 7.1 04:39:46 10° NNW 04:40:10 11° NW 04:40:10 11° NW visible
03 Oct 7.0 04:23:15 10° NNW 04:24:12 15° NNW 04:24:12 15° NNW visible
04 Oct 7.0 04:07:05 10° N 04:08:15 17° N 04:08:15 17° N visible
05 Oct 7.1 03:51:09 10° N 04:04:06 - SSW 03:52:18 17° N visible
06 Oct 7.3 03:35:27 10° NNE 03:47:44 - S 03:36:21 15° NNE visible
07 Oct 7.6 03:19:57 10° NNE 03:31:22 - S 03:20:24 12° NNE visible
08 Oct8.003:15:00SSE03:15:00SSE03:04:26NEvisible
08 Oct 7.2 04:46:05 10° NW 04:46:09 10° NW 04:46:09 10° NW visible
09 Oct8.102:58:38SSE02:58:38SSE02:48:29NEvisible
09 Oct 7.0 04:29:24 10° NNW 04:40:19 - SW 04:30:12 14° NNW visible
10 Oct8.302:42:16SE02:42:16SE02:32:31NEvisible
10 Oct 7.0 04:13:08 10° N 04:23:57 - SSW 04:14:15 16° NNW visible
